Regional Weather Roundup
Issued by NWS

Home | Current Version | Previous Version | Graphics & Text | Print | Product List | Glossary On
Versions: 1 2 3 4 5 6 7 8 9 10 11 12 13 14 15 16 17 18 19 20 21 22 23 24 25 26 27 28 29 30 31 32 33 34 35 36 37 38 39 40 41 42 43 44 45 46 47 48 49 50
000
ASUS43 KIND 230209
RWRIN

WEATHER ROUNDUP FOR INDIANA
NATIONAL WEATHER SERVICE INDIANAPOLIS IN
1000 PM EDT SUN OCT 22 2017

NOTE: "FAIR" INDICATES FEW OR NO CLOUDS BELOW 12,000 FEET WITH NO
SIGNIFICANT WEATHER AND/OR OBSTRUCTIONS TO VISIBILITY.

* - STATION DOES NOT REPORT WEATHER SUCH AS PRECIPITATION OR FOG.

+ - STATION NOT QUALITY CONTROLLED BY THE NATIONAL WEATHER SERVICE.
    USE DATA WITH CAUTION...ESPECIALLY DEWPOINT AND RELATIVE
    HUMIDITY OBSERVATIONS.

INZ001>003-010>013-019-020-230300-
NORTHWEST INDIANA

CITY           SKY/WX    TMP DP  RH WIND       PRES   REMARKS
GARY /AIRPORT/ RAIN      55  54  94 N12G23    30.04F
KNOX *+        CLOUDY    55  54  94 N6        30.00F
LA PORTE +     CLOUDY    55  55  98 N10       30.02S
MICHIGAN CITY+ CLOUDY    54  54 100 N12       30.02F
MONTICELLO +   CLOUDY    62  61  95 NW5       29.99F
RENSSELAER +   CLOUDY    54  50  87 N7        30.01S
VALPARAISO     CLOUDY    56  54  93 N7        30.02S

$$

LMZ046-743>745-230300-
SOUTHERN LAKE MICHIGAN

STATION/POSITION TIME  TEMP    WIND        PRES    WAVE
                       AIR SEA DIR/SP/G            HT
                 (UTC) (F)     (DEG/KT/KT) (MB)    (FT)
BURNS HARBOR     0140   55      10/ 13/ 16 1016.9F
MICHIGAN CITY    0140   55     360/ 19/ 20   N/A
5NW MICH CITY    0200   56 58   20/ 14/ 19   N/A     6

$$

INZ004-005-014>016-021>024-230300-
NORTH CENTRAL INDIANA

CITY           SKY/WX    TMP DP  RH WIND       PRES   REMARKS
GOSHEN         CLOUDY    70  57  63 W5        29.99S
LOGANSPORT +   CLOUDY    70  55  60 S7        29.99F
PERU/GRISSOM   CLOUDY    69  56  61 S14       29.98F
SOUTH BEND     CLOUDY    58  58 100 NW6       30.01F
WARSAW +       CLOUDY    70  55  60 S8        29.99F

$$

INZ006>009-017-018-025>027-230300-
NORTHEAST INDIANA

CITY           SKY/WX    TMP DP  RH WIND       PRES   REMARKS
AUBURN +       CLOUDY    68  52  56 S5        30.03S
FORT WAYNE     CLOUDY    67  53  61 S10       30.03S
HUNTINGTON +   CLOUDY    67  54  61 S7        30.02S
KENDALLVILLE + CLOUDY    69  55  61 S10G16    30.02S

$$

INZ028-029-035-036-043>045-051>053-230300-
WEST CENTRAL INDIANA

CITY           SKY/WX    TMP DP  RH WIND       PRES   REMARKS
CRAWFORDSVL +  CLOUDY    68  57  68 SE8       29.98S
GREENCASTLE +  CLOUDY    68  55  64 SE8       29.99F
LAFAYETTE      CLOUDY    60  58  92 N7        29.99S
TERRE HAUTE    CLOUDY    69  59  70 CALM      29.96S

$$

INZ030>032-037>040-046>048-054>057-064-065-230300-
CENTRAL INDIANA

CITY           SKY/WX    TMP DP  RH WIND       PRES   REMARKS
CP ATTERBURY + MOCLDY    66  54  63 SE7       30.01F
COLUMBUS       CLOUDY    66  50  55 SE8       30.02F
FRANKFORT +    CLOUDY    71  58  64 S7        30.00F
GREENWOOD *+   MOCLDY    71  57  60 SE8       30.02F
INDIANAPOLIS   CLOUDY    69  55  60 SE13      30.00F
-EAGLE CREEK   CLOUDY    70  54  56 SE10      29.99F
KOKOMO +       CLOUDY    69  57  65 S14       30.01F
MT COMFORT *+  PTCLDY    66  57  72 SE7       30.02F
SHELBYVILLE    CLOUDY    69  53  56 SE13      30.01F
ZIONSVILLE +   CLOUDY    68  55  63 S10G17    30.01F

$$

INZ033-034-041-042-049-050-058-059-230300-
EAST CENTRAL INDIANA

CITY           SKY/WX    TMP DP  RH WIND       PRES   REMARKS
MUNCIE         CLOUDY    69  52  54 S6        30.03F
RICHMOND +     CLOUDY    63  50  63 SE9       30.07F

$$

INZ060-061-067>069-081>083-085>088-230300-
SOUTHWEST INDIANA

CITY           SKY/WX    TMP DP  RH WIND       PRES   REMARKS
EVANSVILLE     RAIN      68  63  84 S6        29.96S
HUNTINGBURG +  CLOUDY    71  60  68 SE9       29.96F
WASHINGTON +   LGT RAIN  71  57  61 SE9       29.95F

$$

INZ062-063-066-070>080-084-089>092-230300-
SOUTH CENTRAL AND SOUTHEAST INDIANA

CITY           SKY/WX    TMP DP  RH WIND       PRES   REMARKS
BLOOMINGTON    CLOUDY    71  56  58 SE9       29.99F
MADISON *+     CLOUDY    68  52  56 SE7       30.05F
SEYMOUR +      CLOUDY    70  54  56 SE6       30.01F

$$





USA.gov is the U.S. government's official web portal to all federal, state and local government web resources and services.